Location: Bogis-Bossey
(46.3500°N, 6.1667°E)
Time: 17:56:10
(UTC+00:00)

USA 238 DEB - Pass Details

Date: 04 March 2024
Orbit: 926 x 1285 km, 63.4° (Epoch: 21 April)

Event Time Altitude Azimuth Distance (km) Brightness Sun altitude
Exits shadow 02:27:40 47° 57° (ENE) 1,317 4.4 -37.1°
Drops below altitude 10° 02:32:28 10° 42° (NE) 2,889 6.7 -36.5°
Sets 02:35:14 0° 41° (NE) 3,902 7.6 -36.1°
